Vertical_Velocity
3 0 4 2 2 2 1 -1 -0 -2 0 -0 -1 -1 -1 -1 -2 -1 -1 -1 -1 0
0 4 1 1 4 2 0 -1 -2 -0 1 -0 -2 -1 -1 -1 -1 -1 -1 -1 -1 -2
2 3 2 3 2 2 1 -0 -1 -1 -0 -1 -1 -1 -1 -1 -1 -1 -1 -2 -2 2
1 0 1 2 1 1 1 0 -0 -1 0 -0 -1 -1 -2 -2 -1 -2 -2 2 2 1
3 1 0 -0 0 1 1 0 -1 0 -0 -0 -1 -2 -2 -1 -1 -1 0 2 -0 0
3 2 1 1 -0 1 2 0 0 -1 -0 -0 -2 0 -1 -2 -1 1 2 -0 -1 -3
3 3 2 0 1 2 1 0 -0 -0 -1 -2 -0 -2 -1 0 1 1 0 0 -1 -1
1 3 2 1 2 2 1 -0 -1 -1 -2 -1 -2 -1 1 0 -1 -2 -3 -2 -1 -1
2 2 2 2 2 0 -1 -2 -1 -1 -1 -1 -2 -0 1 2 -2 -3 -2 -4 -2 -2
2 3 2 1 -0 -0 -1 -1 -1 -0 -1 -2 -1 0 -0 -1 -2 -2 1 -0 -2 -2
2 1 1 1 0 -0 -1 -1 1 -3 -3 1 1 -2 -2 -1 -0 1 -3 -2 1 -2
2 1 1 1 -1 -2 1 -1 -2 -1 2 -3 -1 -1 -0 -0 -1 -2 -2 -4 -4 -0
2 2 -0 -2 -0 0 -2 -2 0 1 -3 -2 -1 -0 -3 -5 -0 0 -4 -3 3 0
0 -1 -1 0 -0 -1 -2 0 -3 0 2 -0 -2 -4 0 1 -2 -3 4 -0 -0 1
Height
1473 1477 1481 1486 1490 1492 1494 1496 1498 1500 1501 1500 1499 1498 1497 1494 1492 1490 1488 1486 1484 1482
1471 1475 1480 1485 1488 1489 1491 1493 1496 1498 1498 1497 1496 1495 1493 1491 1489 1487 1484 1482 1480 1477
1467 1473 1479 1483 1485 1487 1489 1491 1493 1494 1494 1493 1492 1491 1490 1488 1486 1483 1481 1478 1475 1471
1464 1470 1476 1481 1483 1486 1487 1488 1490 1491 1491 1490 1489 1487 1486 1484 1481 1479 1476 1473 1469 1466
1464 1468 1473 1478 1481 1483 1485 1486 1487 1488 1487 1486 1485 1483 1482 1480 1477 1474 1470 1467 1463 1459
1463 1467 1470 1475 1479 1481 1482 1483 1484 1484 1484 1483 1481 1480 1477 1474 1472 1468 1464 1460 1456 1452
1463 1466 1469 1472 1475 1477 1479 1480 1481 1481 1480 1479 1478 1476 1473 1469 1466 1462 1459 1455 1451 1446
1462 1465 1467 1470 1473 1474 1476 1477 1477 1477 1476 1475 1474 1472 1468 1464 1460 1456 1453 1449 1445 1441
1461 1463 1465 1468 1470 1471 1473 1474 1475 1474 1473 1472 1470 1467 1463 1459 1454 1451 1446 1442 1438 1434
1459 1461 1464 1466 1467 1469 1471 1472 1471 1471 1470 1467 1465 1461 1457 1453 1449 1445 1441 1437 1432 1428
1458 1460 1462 1464 1466 1467 1469 1469 1468 1467 1466 1463 1459 1456 1452 1448 1444 1439 1436 1432 1427 1422
1457 1459 1460 1462 1464 1466 1466 1466 1465 1464 1461 1458 1455 1451 1447 1442 1438 1433 1430 1426 1421 1417
1456 1457 1459 1461 1463 1463 1464 1464 1462 1460 1457 1453 1450 1446 1441 1437 1433 1428 1424 1420 1416 1412
1455 1457 1459 1460 1461 1461 1461 1460 1458 1456 1453 1449 1445 1440 1437 1432 1428 1425 1420 1416 1411 1406